Arlington, WA
on Sunday, November 4, 2012

Sunday
Previous Day Next Day
Daily Summary
 ActualAverageRecord
Temperature
Mean Temperature °F °F  
Max Temperature 64°F 65°F 71°F (2010)
Min Temperature 53°F 35°F 19°F (2003)
Degree Days
Heating Degree Days 6    
Growing Degree Days8 (Base °F )  
Moisture
Dew Point 54°F   
Average Humidity 84    
Maximum Humidity 94    
Minimum Humidity 73    
Precipitation
Precipitation 0.07 in in in ()
Wind
Wind Speed 10 mph   
Max Wind Speed 23 mph   
Max Gust Speed 31 mph   
Visibility 10 miles   
Events     
Averages and records for this station are not official NWS values.
Key: T is trace of precipitation, MM is missing value
Source: NWS Daily Summary
Seasonal Weather Averages
Time(PST)TemperatureDew PointHumidity Pressure Visibility Wind DirectionWind SpeedGust SpeedPrecipitationEvents Conditions
12:15 AM 55.4°F 51.8°F 88% 30.19 in 10.0 miles SE 8.1 mph - N/A   Mostly Cloudy
12:35 AM 55.4°F 51.8°F 88% 30.18 in 10.0 miles SE 10.4 mph - N/A   Overcast
12:55 AM 55.4°F 51.8°F 88% 30.19 in 10.0 miles SE 10.4 mph - N/A   Overcast
1:15 AM 55.4°F 51.8°F 88% 30.19 in 10.0 miles SE 8.1 mph - N/A   Overcast
1:35 AM 55.4°F 51.8°F 88% 30.19 in 10.0 miles SE 11.5 mph - N/A   Overcast
1:55 AM 55.4°F 51.8°F 88% 30.19 in 10.0 miles SE 12.7 mph - N/A   Overcast
1:15 AM 53.6°F 51.8°F 94% 30.19 in 10.0 miles ESE 8.1 mph - N/A   Overcast
1:35 AM 53.6°F 50.0°F 88% 30.21 in 10.0 miles East 9.2 mph 17.3 mph N/A   Overcast
1:55 AM 53.6°F 50.0°F 88% 30.21 in 9.0 miles Calm Calm - N/A   Overcast
2:15 AM 53.6°F 51.8°F 94% 30.20 in 10.0 miles ENE 10.4 mph - N/A   Overcast
2:35 AM 53.6°F 51.8°F 94% 30.21 in 10.0 miles ENE 5.8 mph - N/A   Overcast
2:55 AM 53.6°F 50.0°F 88% 30.21 in 10.0 miles Calm Calm - N/A   Overcast
3:15 AM 53.6°F 50.0°F 88% 30.21 in 10.0 miles Calm Calm - N/A   Overcast
3:35 AM 53.6°F 50.0°F 88% 30.20 in 10.0 miles Calm Calm - N/A   Overcast
4:15 AM 53.6°F 51.8°F 94% 30.21 in 10.0 miles Calm Calm - N/A   Overcast
4:35 AM 53.6°F 51.8°F 94% 30.21 in 10.0 miles Calm Calm - N/A   Overcast
4:55 AM 53.6°F 50.0°F 88% 30.21 in 10.0 miles Calm Calm - N/A   Overcast
5:15 AM 53.6°F 51.8°F 94% 30.21 in 10.0 miles Calm Calm - N/A   Overcast
5:35 AM 53.6°F 51.8°F 94% 30.21 in 10.0 miles Calm Calm - N/A   Overcast
5:55 AM 53.6°F 51.8°F 94% 30.21 in 10.0 miles Calm Calm - N/A   Overcast
6:15 AM 53.6°F 51.8°F 94% 30.21 in 10.0 miles Calm Calm - N/A   Overcast
6:35 AM 55.4°F 51.8°F 88% 30.19 in 10.0 miles SE 5.8 mph - N/A   Overcast
6:55 AM 55.4°F 51.8°F 88% 30.20 in 10.0 miles SE 11.5 mph - N/A   Overcast
7:15 AM 57.2°F 51.8°F 82% 30.19 in 10.0 miles ESE 9.2 mph - N/A   Mostly Cloudy
7:35 AM 57.2°F 51.8°F 82% 30.20 in 10.0 miles ESE 8.1 mph - N/A   Overcast
7:55 AM 57.2°F 51.8°F 82% 30.21 in 10.0 miles ESE 5.8 mph - N/A   Overcast
8:15 AM 57.2°F 51.8°F 82% 30.22 in 10.0 miles SSW 5.8 mph - N/A   Overcast
8:35 AM 57.2°F 53.6°F 88% 30.22 in 10.0 miles SE 3.5 mph - N/A   Overcast
8:55 AM 57.2°F 53.6°F 88% 30.22 in 10.0 miles South 5.8 mph - N/A   Overcast
9:15 AM 59.0°F 53.6°F 82% 30.20 in 10.0 miles ESE 12.7 mph 17.3 mph N/A   Overcast
9:35 AM 60.8°F 53.6°F 77% 30.21 in 10.0 miles ESE 11.5 mph 16.1 mph N/A   Overcast
9:55 AM 60.8°F 53.6°F 77% 30.20 in 10.0 miles ESE 11.5 mph - N/A   Overcast
10:15 AM 60.8°F 53.6°F 77% 30.22 in 10.0 miles SSW 5.8 mph - N/A   Overcast
10:35 AM 60.8°F 55.4°F 82% 30.22 in 10.0 miles SE 8.1 mph - N/A   Overcast
10:55 AM 60.8°F 55.4°F 82% 30.22 in 10.0 miles SE 10.4 mph - N/A   Overcast
11:15 AM 60.8°F 55.4°F 82% 30.22 in 10.0 miles SE 16.1 mph - N/A   Overcast
11:35 AM 60.8°F 55.4°F 82% 30.22 in 10.0 miles SE 15.0 mph 18.4 mph N/A   Overcast
11:55 AM 60.8°F 55.4°F 82% 30.21 in 10.0 miles SE 18.4 mph 21.9 mph N/A   Overcast
12:15 PM 60.8°F 55.4°F 82% 30.22 in 10.0 miles SE 17.3 mph 24.2 mph N/A   Overcast
12:35 PM 60.8°F 55.4°F 82% 30.21 in 10.0 miles SE 23.0 mph 31.1 mph N/A   Overcast
12:55 PM 62.6°F 55.4°F 77% 30.21 in 10.0 miles SE 18.4 mph - N/A   Overcast
1:15 PM 62.6°F 55.4°F 77% 30.21 in 10.0 miles SE 19.6 mph 23.0 mph N/A   Overcast
1:35 PM 62.6°F 55.4°F 77% 30.21 in 10.0 miles SE 16.1 mph - N/A   Overcast
1:55 PM 62.6°F 55.4°F 77% 30.21 in 10.0 miles SE 17.3 mph 24.2 mph N/A   Overcast
2:15 PM 62.6°F 55.4°F 77% 30.21 in 10.0 miles SSE 16.1 mph 24.2 mph N/A   Overcast
2:35 PM 62.6°F 55.4°F 77% 30.20 in 10.0 miles SE 20.7 mph 24.2 mph N/A   Overcast
2:55 PM 62.6°F 55.4°F 77% 30.20 in 10.0 miles SSE 19.6 mph 26.5 mph N/A   Overcast
3:15 PM 62.6°F 55.4°F 77% 30.20 in 10.0 miles SSE 20.7 mph 31.1 mph N/A   Overcast
3:35 PM 62.6°F 55.4°F 77% 30.18 in 10.0 miles SE 20.7 mph 31.1 mph N/A   Overcast
3:55 PM 62.6°F 55.4°F 77% 30.18 in 10.0 miles SSE 21.9 mph 28.8 mph N/A   Overcast
4:15 PM 62.6°F 57.2°F 82% 30.19 in 10.0 miles SE 21.9 mph 27.6 mph N/A   Overcast
4:35 PM 62.6°F 57.2°F 82% 30.20 in 10.0 miles SE 21.9 mph 26.5 mph N/A   Overcast
4:55 PM 62.6°F 55.4°F 77% 30.22 in 10.0 miles SSE 20.7 mph 29.9 mph N/A   Overcast
5:15 PM 62.6°F 55.4°F 77% 30.22 in 10.0 miles SSE 18.4 mph 27.6 mph N/A   Overcast
5:35 PM 62.6°F 55.4°F 77% 30.22 in 10.0 miles SSE 18.4 mph 24.2 mph N/A   Overcast
5:55 PM 64.4°F 55.4°F 73% 30.22 in 10.0 miles SE 21.9 mph 26.5 mph N/A   Overcast
6:15 PM 64.4°F 55.4°F 73% 30.22 in 10.0 miles SSE 19.6 mph 24.2 mph N/A   Overcast
6:35 PM 64.4°F 55.4°F 73% 30.22 in 10.0 miles SSE 13.8 mph 24.2 mph N/A   Overcast
6:55 PM 62.6°F 55.4°F 77% 30.24 in 10.0 miles SSE 6.9 mph - N/A   Overcast
7:15 PM 62.6°F 55.4°F 77% 30.23 in 9.0 miles South 17.3 mph 21.9 mph 0.02 in   Overcast
7:35 PM 60.8°F 57.2°F 88% 30.22 in 10.0 miles SSE 13.8 mph - 0.04 in   Overcast
7:55 PM 60.8°F 57.2°F 88% 30.22 in 10.0 miles South 11.5 mph - 0.05 in   Overcast
8:15 PM 60.8°F 57.2°F 88% 30.23 in 9.0 miles South 10.4 mph - N/A   Overcast
8:35 PM 60.8°F 57.2°F 88% 30.22 in 10.0 miles SSE 13.8 mph - 0.01 in   Overcast
8:55 PM 60.8°F 57.2°F 88% 30.24 in 10.0 miles South 9.2 mph - 0.01 in   Overcast
9:15 PM 60.8°F 57.2°F 88% 30.23 in 8.0 miles South 4.6 mph - N/A   Overcast
9:35 PM 60.8°F 57.2°F 88% 30.22 in 10.0 miles SSE 11.5 mph - 0.01 in   Overcast
9:55 PM 60.8°F 57.2°F 88% 30.24 in 10.0 miles South 9.2 mph - 0.01 in   Overcast
10:15 PM 60.8°F 55.4°F 82% 30.26 in 10.0 miles SSW 8.1 mph 16.1 mph N/A   Overcast
10:35 PM 59.0°F 55.4°F 88% 30.25 in 3.0 miles South 8.1 mph - N/A   Overcast
10:55 PM 57.2°F 55.4°F 94% 30.28 in 4.0 miles WNW 13.8 mph 19.6 mph N/A   Overcast
Moon Phase
Nov. 04 Nov. 06 Nov. 13 Nov. 20 Nov. 28
Sunrise:06:59 AM (PST) Moon Rise:09:24 PM (PST)11/4
Sunset:04:44 PM (PST) Moon Set:11:51 AM (PST)11/4

Copyright © 2014 The Weather Underground, Inc.